Year,Month,Day,Hour,Minute,Value (Times are PST for temperature in C)
2006,06,25,00,00,15.20
2006,06,25,00,01,15.20
2006,06,25,00,02,15.20
2006,06,25,00,03,15.20
2006,06,25,00,04,15.20
2006,06,25,00,05,15.20
2006,06,25,00,06,15.20
2006,06,25,00,07,15.20
2006,06,25,00,08,15.20
2006,06,25,00,09,15.20
2006,06,25,00,10,15.20
2006,06,25,00,11,15.20
2006,06,25,00,12,15.20
2006,06,25,00,13,15.10
2006,06,25,00,14,15.10
2006,06,25,00,15,15.10
2006,06,25,00,16,15.00
2006,06,25,00,17,15.00
2006,06,25,00,18,15.00
2006,06,25,00,19,15.00
2006,06,25,00,20,15.00
2006,06,25,00,21,14.90
2006,06,25,00,22,14.90
2006,06,25,00,23,14.90
2006,06,25,00,24,14.90
2006,06,25,00,25,14.90
2006,06,25,00,26,14.90
2006,06,25,00,27,14.90
2006,06,25,00,28,14.90
2006,06,25,00,29,14.90
2006,06,25,00,30,14.90
2006,06,25,00,31,14.80
2006,06,25,00,32,14.80
2006,06,25,00,33,14.80
2006,06,25,00,34,14.70
2006,06,25,00,35,14.60
2006,06,25,00,36,14.50
2006,06,25,00,37,14.50
2006,06,25,00,38,14.50
2006,06,25,00,39,14.40
2006,06,25,00,40,14.40
2006,06,25,00,41,14.40
2006,06,25,00,42,14.40
2006,06,25,00,43,14.30
2006,06,25,00,44,14.30
2006,06,25,00,45,14.30
2006,06,25,00,46,14.30
2006,06,25,00,47,14.30
2006,06,25,00,48,14.20
2006,06,25,00,49,14.20
2006,06,25,00,50,14.20
2006,06,25,00,51,14.20
2006,06,25,00,52,14.20
2006,06,25,00,53,14.20
2006,06,25,00,54,14.20
2006,06,25,00,55,14.20
2006,06,25,00,56,14.20
2006,06,25,00,57,14.20
2006,06,25,00,58,14.20
2006,06,25,00,59,14.10
2006,06,25,01,00,14.10
2006,06,25,01,01,14.10
2006,06,25,01,02,14.10
2006,06,25,01,03,14.00
2006,06,25,01,04,14.00
2006,06,25,01,05,14.00
2006,06,25,01,06,14.00
2006,06,25,01,07,14.00
2006,06,25,01,08,14.00
2006,06,25,01,09,13.90
2006,06,25,01,10,13.90
2006,06,25,01,11,13.90
2006,06,25,01,12,13.90
2006,06,25,01,13,13.90
2006,06,25,01,14,13.90
2006,06,25,01,15,13.90
2006,06,25,01,16,13.90
2006,06,25,01,17,13.90
2006,06,25,01,18,13.90
2006,06,25,01,19,13.90
2006,06,25,01,20,13.80
2006,06,25,01,21,13.80
2006,06,25,01,22,13.80
2006,06,25,01,23,13.80
2006,06,25,01,24,13.80
2006,06,25,01,25,13.70
2006,06,25,01,26,13.70
2006,06,25,01,27,13.70
2006,06,25,01,28,13.70
2006,06,25,01,29,13.70
2006,06,25,01,30,13.70
2006,06,25,01,31,13.70
2006,06,25,01,32,13.70
2006,06,25,01,33,13.70
2006,06,25,01,34,13.70
2006,06,25,01,35,13.70
2006,06,25,01,36,13.60
2006,06,25,01,37,13.60
2006,06,25,01,38,13.60
2006,06,25,01,39,13.60
2006,06,25,01,40,13.60
2006,06,25,01,41,13.60
2006,06,25,01,42,13.60
2006,06,25,01,43,13.60
2006,06,25,01,44,13.60
2006,06,25,01,45,13.50
2006,06,25,01,46,13.50
2006,06,25,01,47,13.50
2006,06,25,01,48,13.50
2006,06,25,01,49,13.50
2006,06,25,01,50,13.50
2006,06,25,01,51,13.50
2006,06,25,01,52,13.50
2006,06,25,01,53,13.50
2006,06,25,01,54,13.50
2006,06,25,01,55,13.50
2006,06,25,01,56,13.50
2006,06,25,01,57,13.50
2006,06,25,01,58,13.50
2006,06,25,01,59,13.50
2006,06,25,02,00,13.50
2006,06,25,02,01,13.50
2006,06,25,02,02,13.50
2006,06,25,02,03,13.50
2006,06,25,02,04,13.40
2006,06,25,02,05,13.40
2006,06,25,02,06,13.40
2006,06,25,02,07,13.40
2006,06,25,02,08,13.40
2006,06,25,02,09,13.30
2006,06,25,02,10,13.30
2006,06,25,02,11,13.30
2006,06,25,02,12,13.30
2006,06,25,02,13,13.30
2006,06,25,02,14,13.30
2006,06,25,02,15,13.30
2006,06,25,02,16,13.30
2006,06,25,02,17,13.30
2006,06,25,02,18,13.30
2006,06,25,02,19,13.30
2006,06,25,02,20,13.30
2006,06,25,02,21,13.30
2006,06,25,02,22,13.20
2006,06,25,02,23,13.20
2006,06,25,02,24,13.20
2006,06,25,02,25,13.20
2006,06,25,02,26,13.20
2006,06,25,02,27,13.20
2006,06,25,02,28,13.20
2006,06,25,02,29,13.10
2006,06,25,02,30,13.10
2006,06,25,02,31,13.10
2006,06,25,02,32,13.10
2006,06,25,02,33,13.10
2006,06,25,02,34,13.10
2006,06,25,02,35,13.10
2006,06,25,02,36,13.10
2006,06,25,02,37,13.10
2006,06,25,02,38,13.10
2006,06,25,02,39,13.00
2006,06,25,02,40,13.00
2006,06,25,02,41,13.10
2006,06,25,02,42,13.10
2006,06,25,02,43,13.10
2006,06,25,02,44,13.10
2006,06,25,02,45,13.10
2006,06,25,02,46,13.10
2006,06,25,02,47,13.10
2006,06,25,02,48,13.10
2006,06,25,02,49,13.10
2006,06,25,02,50,13.00
2006,06,25,02,51,13.00
2006,06,25,02,52,13.00
2006,06,25,02,53,13.00
2006,06,25,02,54,13.00
2006,06,25,02,55,13.00
2006,06,25,02,56,13.00
2006,06,25,02,57,13.00
2006,06,25,02,58,13.00
2006,06,25,02,59,13.00
2006,06,25,03,00,13.10
2006,06,25,03,01,13.10
2006,06,25,03,02,13.10
2006,06,25,03,03,13.10
2006,06,25,03,04,13.10
2006,06,25,03,05,13.10
2006,06,25,03,06,13.10
2006,06,25,03,07,13.20
2006,06,25,03,08,13.20
2006,06,25,03,09,13.20
2006,06,25,03,10,13.30
2006,06,25,03,11,13.30
2006,06,25,03,12,13.30
2006,06,25,03,13,13.30
2006,06,25,03,14,13.30
2006,06,25,03,15,13.30
2006,06,25,03,16,13.30
2006,06,25,03,17,13.30
2006,06,25,03,18,13.30
2006,06,25,03,19,13.30
2006,06,25,03,20,13.30
2006,06,25,03,21,13.30
2006,06,25,03,22,13.30
2006,06,25,03,23,13.30
2006,06,25,03,24,13.30
2006,06,25,03,25,13.30
2006,06,25,03,26,13.30
2006,06,25,03,27,13.30
2006,06,25,03,28,13.30
2006,06,25,03,29,13.30
2006,06,25,03,30,13.30
2006,06,25,03,31,13.30
2006,06,25,03,32,13.40
2006,06,25,03,33,13.40
2006,06,25,03,34,13.40
2006,06,25,03,35,13.40
2006,06,25,03,36,13.30
2006,06,25,03,37,13.30
2006,06,25,03,38,13.30
2006,06,25,03,39,13.30
2006,06,25,03,40,13.30
2006,06,25,03,41,13.30
2006,06,25,03,42,13.30
2006,06,25,03,43,13.40
2006,06,25,03,44,13.40
2006,06,25,03,45,13.40
2006,06,25,03,46,13.40
2006,06,25,03,47,13.40
2006,06,25,03,48,13.50
2006,06,25,03,49,13.50
2006,06,25,03,50,13.50
2006,06,25,03,51,13.50
2006,06,25,03,52,13.50
2006,06,25,03,53,13.50
2006,06,25,03,54,13.50
2006,06,25,03,55,13.50
2006,06,25,03,56,13.50
2006,06,25,03,57,13.60
2006,06,25,03,58,13.60
2006,06,25,03,59,13.60
2006,06,25,04,00,13.60
2006,06,25,04,01,13.60
2006,06,25,04,02,13.60
2006,06,25,04,03,13.70
2006,06,25,04,04,13.70
2006,06,25,04,05,13.70
2006,06,25,04,06,13.70
2006,06,25,04,07,13.70
2006,06,25,04,08,13.70
2006,06,25,04,09,13.70
2006,06,25,04,10,13.80
2006,06,25,04,11,13.80
2006,06,25,04,12,13.80
2006,06,25,04,13,13.80
2006,06,25,04,14,13.90
2006,06,25,04,15,13.90
2006,06,25,04,16,13.90
2006,06,25,04,17,13.90
2006,06,25,04,18,14.00
2006,06,25,04,19,14.10
2006,06,25,04,20,14.20
2006,06,25,04,21,14.30
2006,06,25,04,22,14.40
2006,06,25,04,23,14.50
2006,06,25,04,24,14.60
2006,06,25,04,25,14.60
2006,06,25,04,26,14.70
2006,06,25,04,27,14.70
2006,06,25,04,28,14.80
2006,06,25,04,29,14.80
2006,06,25,04,30,14.80
2006,06,25,04,31,14.80
2006,06,25,04,32,14.90
2006,06,25,04,33,14.90
2006,06,25,04,34,15.00
2006,06,25,04,35,15.00
2006,06,25,04,36,15.10
2006,06,25,04,37,15.00
2006,06,25,04,38,15.00
2006,06,25,04,39,15.00
2006,06,25,04,40,14.90
2006,06,25,04,41,14.90
2006,06,25,04,42,14.90
2006,06,25,04,43,14.90
2006,06,25,04,44,14.90
2006,06,25,04,45,14.90
2006,06,25,04,46,14.90
2006,06,25,04,47,14.90
2006,06,25,04,48,14.90
2006,06,25,04,49,14.90
2006,06,25,04,50,14.90
2006,06,25,04,51,14.90
2006,06,25,04,52,14.80
2006,06,25,04,53,14.80
2006,06,25,04,54,14.90
2006,06,25,04,55,15.00
2006,06,25,04,56,15.00
2006,06,25,04,57,15.10
2006,06,25,04,58,15.30
2006,06,25,04,59,15.50
2006,06,25,05,00,15.60
2006,06,25,05,01,15.70
2006,06,25,05,02,15.90
2006,06,25,05,03,16.10
2006,06,25,05,04,16.20
2006,06,25,05,05,16.40
2006,06,25,05,06,16.40
2006,06,25,05,07,16.50
2006,06,25,05,08,16.70
2006,06,25,05,09,16.70
2006,06,25,05,10,16.80
2006,06,25,05,11,16.80
2006,06,25,05,12,16.90
2006,06,25,05,13,16.90
2006,06,25,05,14,16.90
2006,06,25,05,15,16.90
2006,06,25,05,16,16.90
2006,06,25,05,17,16.90
2006,06,25,05,18,16.80
2006,06,25,05,19,16.70
2006,06,25,05,20,16.60
2006,06,25,05,21,16.50
2006,06,25,05,22,16.40
2006,06,25,05,23,16.30
2006,06,25,05,24,16.10
2006,06,25,05,25,16.00
2006,06,25,05,26,15.80
2006,06,25,05,27,15.70
2006,06,25,05,28,15.50
2006,06,25,05,29,15.40
2006,06,25,05,30,15.30
2006,06,25,05,31,15.20
2006,06,25,05,32,15.10
2006,06,25,05,33,15.00
2006,06,25,05,34,14.90
2006,06,25,05,35,14.80
2006,06,25,05,36,14.80
2006,06,25,05,37,14.70
2006,06,25,05,38,14.60
2006,06,25,05,39,14.50
2006,06,25,05,40,14.40
2006,06,25,05,41,14.40
2006,06,25,05,42,14.30
2006,06,25,05,43,14.20
2006,06,25,05,44,14.20
2006,06,25,05,45,14.20
2006,06,25,05,46,14.20
2006,06,25,05,47,14.10
2006,06,25,05,48,14.10
2006,06,25,05,49,14.10
2006,06,25,05,50,14.00
2006,06,25,05,51,14.00
2006,06,25,05,52,14.00
2006,06,25,05,53,13.90
2006,06,25,05,54,13.90
2006,06,25,05,55,13.90
2006,06,25,05,56,13.90
2006,06,25,05,57,13.90
2006,06,25,05,58,13.90
2006,06,25,05,59,13.90
2006,06,25,06,00,13.90
2006,06,25,06,01,13.90
2006,06,25,06,02,13.90
2006,06,25,06,03,13.90
2006,06,25,06,04,13.90
2006,06,25,06,05,13.90
2006,06,25,06,06,13.90
2006,06,25,06,07,14.00
2006,06,25,06,08,14.20
2006,06,25,06,09,14.40
2006,06,25,06,10,14.60
2006,06,25,06,11,14.80
2006,06,25,06,12,15.10
2006,06,25,06,13,15.40
2006,06,25,06,14,15.70
2006,06,25,06,15,16.00
2006,06,25,06,16,16.30
2006,06,25,06,17,16.50
2006,06,25,06,18,16.70
2006,06,25,06,19,16.90
2006,06,25,06,20,17.00
2006,06,25,06,21,17.30
2006,06,25,06,22,17.40
2006,06,25,06,23,17.50
2006,06,25,06,24,17.60
2006,06,25,06,25,17.70
2006,06,25,06,26,17.80
2006,06,25,06,27,17.90
2006,06,25,06,28,17.90
2006,06,25,06,29,17.90
2006,06,25,06,30,17.80
2006,06,25,06,31,17.50
2006,06,25,06,32,17.20
2006,06,25,06,33,16.70
2006,06,25,06,34,16.40
2006,06,25,06,35,16.00
2006,06,25,06,36,15.70
2006,06,25,06,37,15.50
2006,06,25,06,38,15.40
2006,06,25,06,39,15.30
2006,06,25,06,40,15.20
2006,06,25,06,41,15.20
2006,06,25,06,42,15.20
2006,06,25,06,43,15.30
2006,06,25,06,44,15.30
2006,06,25,06,45,15.40
2006,06,25,06,46,15.50
2006,06,25,06,47,15.60
2006,06,25,06,48,15.80
2006,06,25,06,49,15.90
2006,06,25,06,50,16.00
2006,06,25,06,51,16.20
2006,06,25,06,52,16.30
2006,06,25,06,53,16.50
2006,06,25,06,54,16.70
2006,06,25,06,55,16.80
2006,06,25,06,56,17.00
2006,06,25,06,57,17.20
2006,06,25,06,58,17.30
2006,06,25,06,59,17.40
2006,06,25,07,00,17.50
2006,06,25,07,01,17.60
2006,06,25,07,02,17.70
2006,06,25,07,03,17.80
2006,06,25,07,04,17.90
2006,06,25,07,05,17.90
2006,06,25,07,06,18.00
2006,06,25,07,07,18.10
2006,06,25,07,08,18.20
2006,06,25,07,09,18.30
2006,06,25,07,10,18.40
2006,06,25,07,11,18.50
2006,06,25,07,12,18.70
2006,06,25,07,13,18.80
2006,06,25,07,14,19.00
2006,06,25,07,15,19.10
2006,06,25,07,16,19.30
2006,06,25,07,17,19.40
2006,06,25,07,18,19.50
2006,06,25,07,19,19.60
2006,06,25,07,20,19.60
2006,06,25,07,21,19.60
2006,06,25,07,22,19.50
2006,06,25,07,23,19.50
2006,06,25,07,24,19.50
2006,06,25,07,25,19.40
2006,06,25,07,26,19.40
2006,06,25,07,27,19.40
2006,06,25,07,28,19.40
2006,06,25,07,29,19.50
2006,06,25,07,30,19.50
2006,06,25,07,31,19.50
2006,06,25,07,32,19.60
2006,06,25,07,33,19.60
2006,06,25,07,34,19.70
2006,06,25,07,35,19.70
2006,06,25,07,36,19.80
2006,06,25,07,37,19.90
2006,06,25,07,38,20.10
2006,06,25,07,39,20.20
2006,06,25,07,40,20.20
2006,06,25,07,41,20.30
2006,06,25,07,42,20.40
2006,06,25,07,43,20.50
2006,06,25,07,44,20.50
2006,06,25,07,45,20.50
2006,06,25,07,46,20.30
2006,06,25,07,47,20.00
2006,06,25,07,48,19.60
2006,06,25,07,49,19.30
2006,06,25,07,50,19.00
2006,06,25,07,51,18.50
2006,06,25,07,52,18.20
2006,06,25,07,53,17.90
2006,06,25,07,54,17.60
2006,06,25,07,55,17.30
2006,06,25,07,56,17.00
2006,06,25,07,57,16.60
2006,06,25,07,58,16.50
2006,06,25,07,59,16.30
2006,06,25,08,00,16.20
2006,06,25,08,01,16.20
2006,06,25,08,02,16.30
2006,06,25,08,03,16.30
2006,06,25,08,04,16.30
2006,06,25,08,05,16.40
2006,06,25,08,06,16.40
2006,06,25,08,07,16.40
2006,06,25,08,08,16.40
2006,06,25,08,09,16.50
2006,06,25,08,10,16.60
2006,06,25,08,11,16.70
2006,06,25,08,12,16.80
2006,06,25,08,13,16.80
2006,06,25,08,14,16.80
2006,06,25,08,15,16.80
2006,06,25,08,16,16.80
2006,06,25,08,17,16.80
2006,06,25,08,18,16.80
2006,06,25,08,19,16.90
2006,06,25,08,20,16.90
2006,06,25,08,21,16.80
2006,06,25,08,22,16.70
2006,06,25,08,23,16.70
2006,06,25,08,24,16.70
2006,06,25,08,25,16.70
2006,06,25,08,26,16.70
2006,06,25,08,27,16.70
2006,06,25,08,28,16.70
2006,06,25,08,29,16.80
2006,06,25,08,30,16.90
2006,06,25,08,31,16.90
2006,06,25,08,32,17.00
2006,06,25,08,33,17.10
2006,06,25,08,34,17.20
2006,06,25,08,35,17.30
2006,06,25,08,36,17.50
2006,06,25,08,37,17.50
2006,06,25,08,38,17.70
2006,06,25,08,39,17.80
2006,06,25,08,40,17.90
2006,06,25,08,41,18.00
2006,06,25,08,42,18.20
2006,06,25,08,43,18.20
2006,06,25,08,44,18.30
2006,06,25,08,45,18.40
2006,06,25,08,46,18.40
2006,06,25,08,47,18.40
2006,06,25,08,48,18.50
2006,06,25,08,49,18.50
2006,06,25,08,50,18.60
2006,06,25,08,51,18.60
2006,06,25,08,52,18.70
2006,06,25,08,53,18.70
2006,06,25,08,54,18.70
2006,06,25,08,55,18.70
2006,06,25,08,56,18.70
2006,06,25,08,57,18.60
2006,06,25,08,58,18.60
2006,06,25,08,59,18.60
2006,06,25,09,00,18.60
2006,06,25,09,01,18.70
2006,06,25,09,02,18.90
2006,06,25,09,03,19.00
2006,06,25,09,04,19.10
2006,06,25,09,05,19.20
2006,06,25,09,06,19.40
2006,06,25,09,07,19.60
2006,06,25,09,08,19.80
2006,06,25,09,09,20.00
2006,06,25,09,10,20.30
2006,06,25,09,11,20.50
2006,06,25,09,12,20.80
2006,06,25,09,13,21.00
2006,06,25,09,14,21.30
2006,06,25,09,15,21.40
2006,06,25,09,16,21.60
2006,06,25,09,17,21.70
2006,06,25,09,18,22.00
2006,06,25,09,19,22.10
2006,06,25,09,20,22.30
2006,06,25,09,21,22.30
2006,06,25,09,22,22.40
2006,06,25,09,23,22.30
2006,06,25,09,24,22.30
2006,06,25,09,25,22.10
2006,06,25,09,26,22.00
2006,06,25,09,27,21.90
2006,06,25,09,28,21.60
2006,06,25,09,29,21.50
2006,06,25,09,30,21.40
2006,06,25,09,31,21.30
2006,06,25,09,32,21.30
2006,06,25,09,33,21.40
2006,06,25,09,34,21.50
2006,06,25,09,35,21.60
2006,06,25,09,36,21.70
2006,06,25,09,37,21.90
2006,06,25,09,38,22.00
2006,06,25,09,39,22.20
2006,06,25,09,40,22.30
2006,06,25,09,41,22.40
2006,06,25,09,42,22.60
2006,06,25,09,43,22.60
2006,06,25,09,44,22.70
2006,06,25,09,45,22.80
2006,06,25,09,46,22.80
2006,06,25,09,47,22.90
2006,06,25,09,48,22.90
2006,06,25,09,49,22.90
2006,06,25,09,50,23.00
2006,06,25,09,51,23.10
2006,06,25,09,52,23.20
2006,06,25,09,53,23.30
2006,06,25,09,54,23.40
2006,06,25,09,55,23.40
2006,06,25,09,56,23.50
2006,06,25,09,57,23.60
2006,06,25,09,58,23.60
2006,06,25,09,59,23.60
2006,06,25,10,00,23.70
2006,06,25,10,01,23.70
2006,06,25,10,02,23.70
2006,06,25,10,03,23.80
2006,06,25,10,04,23.80
2006,06,25,10,05,23.80
2006,06,25,10,06,23.90
2006,06,25,10,07,23.90
2006,06,25,10,08,23.90
2006,06,25,10,09,24.00
2006,06,25,10,10,24.10
2006,06,25,10,11,24.10
2006,06,25,10,12,24.10
2006,06,25,10,13,24.20
2006,06,25,10,14,24.20
2006,06,25,10,15,24.20
2006,06,25,10,16,24.30
2006,06,25,10,17,24.30
2006,06,25,10,18,24.40
2006,06,25,10,19,24.50
2006,06,25,10,20,24.50
2006,06,25,10,21,24.50
2006,06,25,10,22,24.50
2006,06,25,10,23,24.50
2006,06,25,10,24,24.50
2006,06,25,10,25,24.50
2006,06,25,10,26,24.50
2006,06,25,10,27,24.50
2006,06,25,10,28,24.60
2006,06,25,10,29,24.60
2006,06,25,10,30,24.50
2006,06,25,10,31,24.50
2006,06,25,10,32,24.50
2006,06,25,10,33,24.40
2006,06,25,10,34,24.50
2006,06,25,10,35,24.50
2006,06,25,10,36,24.60
2006,06,25,10,37,24.60
2006,06,25,10,38,24.70
2006,06,25,10,39,24.70
2006,06,25,10,40,24.80
2006,06,25,10,41,24.80
2006,06,25,10,42,24.80
2006,06,25,10,43,24.70
2006,06,25,10,44,24.60
2006,06,25,10,45,24.60
2006,06,25,10,46,24.70
2006,06,25,10,47,24.80
2006,06,25,10,48,24.90
2006,06,25,10,49,24.90
2006,06,25,10,50,25.00
2006,06,25,10,51,25.00
2006,06,25,10,52,25.00
2006,06,25,10,53,24.90
2006,06,25,10,54,25.00
2006,06,25,10,55,25.00
2006,06,25,10,56,25.10
2006,06,25,10,57,25.10
2006,06,25,10,58,25.20
2006,06,25,10,59,25.30
2006,06,25,11,00,25.30
2006,06,25,11,01,25.30
2006,06,25,11,02,25.40
2006,06,25,11,03,25.40
2006,06,25,11,04,25.40
2006,06,25,11,05,25.40
2006,06,25,11,06,25.40
2006,06,25,11,07,25.50
2006,06,25,11,08,25.50
2006,06,25,11,09,25.50
2006,06,25,11,10,25.50
2006,06,25,11,11,25.50
2006,06,25,11,12,25.50
2006,06,25,11,13,25.40
2006,06,25,11,14,25.40
2006,06,25,11,15,25.40
2006,06,25,11,16,25.40
2006,06,25,11,17,25.40
2006,06,25,11,18,25.30
2006,06,25,11,19,25.30
2006,06,25,11,20,25.40
2006,06,25,11,21,25.30
2006,06,25,11,22,25.30
2006,06,25,11,23,25.40
2006,06,25,11,24,25.40
2006,06,25,11,25,25.50
2006,06,25,11,26,25.50
2006,06,25,11,27,25.50
2006,06,25,11,28,25.50
2006,06,25,11,29,25.50
2006,06,25,11,30,25.50
2006,06,25,11,31,25.50
2006,06,25,11,32,25.50
2006,06,25,11,33,25.60
2006,06,25,11,34,25.60
2006,06,25,11,35,25.60
2006,06,25,11,36,25.60
2006,06,25,11,37,25.60
2006,06,25,11,38,25.50
2006,06,25,11,39,25.50
2006,06,25,11,40,25.50
2006,06,25,11,41,25.50
2006,06,25,11,42,25.60
2006,06,25,11,43,25.60
2006,06,25,11,44,25.70
2006,06,25,11,45,25.70
2006,06,25,11,46,25.80
2006,06,25,11,47,25.70
2006,06,25,11,48,25.70
2006,06,25,11,49,25.60
2006,06,25,11,50,25.60
2006,06,25,11,51,25.70
2006,06,25,11,52,25.80
2006,06,25,11,53,25.80
2006,06,25,11,54,25.80
2006,06,25,11,55,25.80
2006,06,25,11,56,25.80
2006,06,25,11,57,25.80
2006,06,25,11,58,25.70
2006,06,25,11,59,25.60
2006,06,25,12,00,25.50
2006,06,25,12,01,25.50
2006,06,25,12,02,25.60
2006,06,25,12,03,25.60
2006,06,25,12,04,25.60
2006,06,25,12,05,25.60
2006,06,25,12,06,25.60
2006,06,25,12,07,25.60
2006,06,25,12,08,25.60
2006,06,25,12,09,25.70
2006,06,25,12,10,25.80
2006,06,25,12,11,25.90
2006,06,25,12,12,25.90
2006,06,25,12,13,26.00
2006,06,25,12,14,26.00
2006,06,25,12,15,26.10
2006,06,25,12,16,26.10
2006,06,25,12,17,26.10
2006,06,25,12,18,26.20
2006,06,25,12,19,26.20
2006,06,25,12,20,26.20
2006,06,25,12,21,26.20
2006,06,25,12,22,26.20
2006,06,25,12,23,26.20
2006,06,25,12,24,26.30
2006,06,25,12,25,26.30
2006,06,25,12,26,26.40
2006,06,25,12,27,26.50
2006,06,25,12,28,26.60
2006,06,25,12,29,26.60
2006,06,25,12,30,26.60
2006,06,25,12,31,26.60
2006,06,25,12,32,26.60
2006,06,25,12,33,26.50
2006,06,25,12,34,26.40
2006,06,25,12,35,26.30
2006,06,25,12,36,26.30
2006,06,25,12,37,26.30
2006,06,25,12,38,26.20
2006,06,25,12,39,26.20
2006,06,25,12,40,26.20
2006,06,25,12,41,26.20
2006,06,25,12,42,26.30
2006,06,25,12,43,26.30
2006,06,25,12,44,26.30
2006,06,25,12,45,26.40
2006,06,25,12,46,26.60
2006,06,25,12,47,26.70
2006,06,25,12,48,26.80
2006,06,25,12,49,27.00
2006,06,25,12,50,27.10
2006,06,25,12,51,27.20
2006,06,25,12,52,27.20
2006,06,25,12,53,27.20
2006,06,25,12,54,27.30
2006,06,25,12,55,27.30
2006,06,25,12,56,27.50
2006,06,25,12,57,27.60
2006,06,25,12,58,27.70
2006,06,25,12,59,27.80
2006,06,25,13,00,27.90
2006,06,25,13,01,28.00
2006,06,25,13,02,28.00
2006,06,25,13,03,28.00
2006,06,25,13,04,28.00
2006,06,25,13,05,28.00
2006,06,25,13,06,28.10
2006,06,25,13,07,28.10
2006,06,25,13,08,28.00
2006,06,25,13,09,28.00
2006,06,25,13,10,27.90
2006,06,25,13,11,27.90
2006,06,25,13,12,27.90
2006,06,25,13,13,27.80
2006,06,25,13,14,27.70
2006,06,25,13,15,27.60
2006,06,25,13,16,27.60
2006,06,25,13,17,27.60
2006,06,25,13,18,27.60
2006,06,25,13,19,27.70
2006,06,25,13,20,27.70
2006,06,25,13,21,27.70
2006,06,25,13,22,27.70
2006,06,25,13,23,27.70
2006,06,25,13,24,27.80
2006,06,25,13,25,27.80
2006,06,25,13,26,27.90
2006,06,25,13,27,28.00
2006,06,25,13,28,28.00
2006,06,25,13,29,28.00
2006,06,25,13,30,27.90
2006,06,25,13,31,27.90
2006,06,25,13,32,27.80
2006,06,25,13,33,27.70
2006,06,25,13,34,27.60
2006,06,25,13,35,27.60
2006,06,25,13,36,27.50
2006,06,25,13,37,27.60
2006,06,25,13,38,27.60
2006,06,25,13,39,27.60
2006,06,25,13,40,27.60
2006,06,25,13,41,27.70
2006,06,25,13,42,27.80
2006,06,25,13,43,27.80
2006,06,25,13,44,27.80
2006,06,25,13,45,27.90
2006,06,25,13,46,27.90
2006,06,25,13,47,28.00
2006,06,25,13,48,28.10
2006,06,25,13,49,28.10
2006,06,25,13,50,28.10
2006,06,25,13,51,28.10
2006,06,25,13,52,28.00
2006,06,25,13,53,28.00
2006,06,25,13,54,28.00
2006,06,25,13,55,28.00
2006,06,25,13,56,28.10
2006,06,25,13,57,28.10
2006,06,25,13,58,28.20
2006,06,25,13,59,28.30
2006,06,25,14,00,28.50
2006,06,25,14,01,28.60
2006,06,25,14,02,28.60
2006,06,25,14,03,28.70
2006,06,25,14,04,28.80
2006,06,25,14,05,28.80
2006,06,25,14,06,28.80
2006,06,25,14,07,28.90
2006,06,25,14,08,28.90
2006,06,25,14,09,28.90
2006,06,25,14,10,28.90
2006,06,25,14,11,28.90
2006,06,25,14,12,28.90
2006,06,25,14,13,28.80
2006,06,25,14,14,28.80
2006,06,25,14,15,28.70
2006,06,25,14,16,28.70
2006,06,25,14,17,28.60
2006,06,25,14,18,28.60
2006,06,25,14,19,28.70
2006,06,25,14,20,28.70
2006,06,25,14,21,28.70
2006,06,25,14,22,28.70
2006,06,25,14,23,28.70
2006,06,25,14,24,28.70
2006,06,25,14,25,28.70
2006,06,25,14,26,28.70
2006,06,25,14,27,28.70
2006,06,25,14,28,28.70
2006,06,25,14,29,28.80
2006,06,25,14,30,28.80
2006,06,25,14,31,28.80
2006,06,25,14,32,28.80
2006,06,25,14,33,28.70
2006,06,25,14,34,28.70
2006,06,25,14,35,28.70
2006,06,25,14,36,28.70
2006,06,25,14,37,28.70
2006,06,25,14,38,28.80
2006,06,25,14,39,28.90
2006,06,25,14,40,28.90
2006,06,25,14,41,28.90
2006,06,25,14,42,28.90
2006,06,25,14,43,28.90
2006,06,25,14,44,28.90
2006,06,25,14,45,28.90
2006,06,25,14,46,28.90
2006,06,25,14,47,28.90
2006,06,25,14,48,29.00
2006,06,25,14,49,29.10
2006,06,25,14,50,29.10
2006,06,25,14,51,29.10
2006,06,25,14,52,29.10
2006,06,25,14,53,29.00
2006,06,25,14,54,28.90
2006,06,25,14,55,28.90
2006,06,25,14,56,28.90
2006,06,25,14,57,28.90
2006,06,25,14,58,28.90
2006,06,25,14,59,28.90
2006,06,25,15,00,29.00
2006,06,25,15,01,29.10
2006,06,25,15,02,29.10
2006,06,25,15,03,29.20
2006,06,25,15,04,29.20
2006,06,25,15,05,29.20
2006,06,25,15,06,29.20
2006,06,25,15,07,29.20
2006,06,25,15,08,29.20
2006,06,25,15,09,29.20
2006,06,25,15,10,29.20
2006,06,25,15,11,29.20
2006,06,25,15,12,29.20
2006,06,25,15,13,29.20
2006,06,25,15,14,29.20
2006,06,25,15,15,29.30
2006,06,25,15,16,29.40
2006,06,25,15,17,29.40
2006,06,25,15,18,29.30
2006,06,25,15,19,29.30
2006,06,25,15,20,29.30
2006,06,25,15,21,29.30
2006,06,25,15,22,29.40
2006,06,25,15,23,29.40
2006,06,25,15,24,29.50
2006,06,25,15,25,29.50
2006,06,25,15,26,29.60
2006,06,25,15,27,29.60
2006,06,25,15,28,29.60
2006,06,25,15,29,29.60
2006,06,25,15,30,29.50
2006,06,25,15,31,29.50
2006,06,25,15,32,29.50
2006,06,25,15,33,29.50
2006,06,25,15,34,29.50
2006,06,25,15,35,29.40
2006,06,25,15,36,29.40
2006,06,25,15,37,29.40
2006,06,25,15,38,29.40
2006,06,25,15,39,29.40
2006,06,25,15,40,29.40
2006,06,25,15,41,29.30
2006,06,25,15,42,29.30
2006,06,25,15,43,29.30
2006,06,25,15,44,29.30
2006,06,25,15,45,29.30
2006,06,25,15,46,29.20
2006,06,25,15,47,29.00
2006,06,25,15,48,28.90
2006,06,25,15,49,28.70
2006,06,25,15,50,28.60
2006,06,25,15,51,28.50
2006,06,25,15,52,28.30
2006,06,25,15,53,28.10
2006,06,25,15,54,27.70
2006,06,25,15,55,27.20
2006,06,25,15,56,27.00
2006,06,25,15,57,26.60
2006,06,25,15,58,26.10
2006,06,25,15,59,25.70
2006,06,25,16,00,25.30
2006,06,25,16,01,24.80
2006,06,25,16,02,24.40
2006,06,25,16,03,24.10
2006,06,25,16,04,23.90
2006,06,25,16,05,23.80
2006,06,25,16,06,23.70
2006,06,25,16,07,23.70
2006,06,25,16,08,23.70
2006,06,25,16,09,23.70
2006,06,25,16,10,23.80
2006,06,25,16,11,23.90
2006,06,25,16,12,23.90
2006,06,25,16,13,24.00
2006,06,25,16,14,24.10
2006,06,25,16,15,24.30
2006,06,25,16,16,24.50
2006,06,25,16,17,24.70
2006,06,25,16,18,24.90
2006,06,25,16,19,24.90
2006,06,25,16,20,24.90
2006,06,25,16,21,24.90
2006,06,25,16,22,24.80
2006,06,25,16,23,24.80
2006,06,25,16,24,24.90
2006,06,25,16,25,24.90
2006,06,25,16,26,24.90
2006,06,25,16,27,24.80
2006,06,25,16,28,24.70
2006,06,25,16,29,24.60
2006,06,25,16,30,24.70
2006,06,25,16,31,24.80
2006,06,25,16,32,24.90
2006,06,25,16,33,24.90
2006,06,25,16,34,24.90
2006,06,25,16,35,24.90
2006,06,25,16,36,24.90
2006,06,25,16,37,24.90
2006,06,25,16,38,24.80
2006,06,25,16,39,24.90
2006,06,25,16,40,24.90
2006,06,25,16,41,24.80
2006,06,25,16,42,24.80
2006,06,25,16,43,24.90
2006,06,25,16,44,25.00
2006,06,25,16,45,25.10
2006,06,25,16,46,25.10
2006,06,25,16,47,24.90
2006,06,25,16,48,24.80
2006,06,25,16,49,24.70
2006,06,25,16,50,24.70
2006,06,25,16,51,24.50
2006,06,25,16,52,24.40
2006,06,25,16,53,24.40
2006,06,25,16,54,24.40
2006,06,25,16,55,24.30
2006,06,25,16,56,24.40
2006,06,25,16,57,24.50
2006,06,25,16,58,24.50
2006,06,25,16,59,24.60
2006,06,25,17,00,24.70
2006,06,25,17,01,24.70
2006,06,25,17,02,24.80
2006,06,25,17,03,24.80
2006,06,25,17,04,24.80
2006,06,25,17,05,24.80
2006,06,25,17,06,24.70
2006,06,25,17,07,24.60
2006,06,25,17,08,24.60
2006,06,25,17,09,24.50
2006,06,25,17,10,24.50
2006,06,25,17,11,24.60
2006,06,25,17,12,24.80
2006,06,25,17,13,24.90
2006,06,25,17,14,25.10
2006,06,25,17,15,25.10
2006,06,25,17,16,25.10
2006,06,25,17,17,25.10
2006,06,25,17,18,25.10
2006,06,25,17,19,25.10